Regional Weather Roundup
Issued by NWS

Home | Current Version | Previous Version | Text Only | Print | Product List | Glossary Off
Versions: 1 2 3 4 5 6 7 8 9 10 11 12 13 14 15 16 17 18 19 20 21 22 23 24 25 26 27 28 29 30 31 32 33 34 35 36 37 38 39 40 41 42 43 44 45 46 47 48 49 50

103
ASUS44 KJAN 291910
RWRMS

MISSISSIPPI HOURLY WEATHER ROUNDUP
NATIONAL WEATHER SERVICE JACKSON MS
200 PM CDT SUN MAR 29 2015

NOTE: "FAIR: INDICATES FEW OR NO CLOUDS BELOW 12,000 FEET WITH NO
SIGNIFICANT WEATHER AND/OR OBSTRUCTIONS TO VISIBILITY.

MSZ001>002-007>008-010>013-018>021-025>028-034>036-292000-
NORTHWEST MISSISSIPPI

CITY           SKY/WX    TMP DP  RH WIND       PRES   REMARKS
CLARKSDALE     FAIR      64  50  59 S18G25    30.15F
CLEVELAND      FAIR      66  53  64 S18G30    30.14F
GREENWOOD      PTSUNNY   70  49  47 S16       30.16F
GREENVILLE     SUNNY     68  53  58 S14       30.14F
OLIVE BRANCH   PTSUNNY   57  41  54 S12G20    30.15F
OXFORD         PTSUNNY   57  37  47 SE10G17   30.18F
TUNICA         PTCLDY    61  46  59 S16G22    30.14F
$$

MSZ003>006-009-014>017-022>024-029>033-037>039-292000-
NORTHEAST MISSISSIPPI

CITY           SKY/WX    TMP DP  RH WIND       PRES   REMARKS
COLUMBUS AFB   PTSUNNY   62  35  36 S14       30.24F
CORINTH        CLOUDY    57  36  44 S14G21    30.20F
GOLDN TRIANGLE PTSUNNY   61  39  44 S12G20    30.28S
STARKVILLE     MOCLDY    63  41  45 SE7       30.22F
TUPELO         PTSUNNY   56  34  43 S12       30.22F
$$

MSZ040-058-292000-
CENTRAL MISSISSIPPI

CITY           SKY/WX    TMP DP  RH WIND       PRES   REMARKS
JACKSON INTL   SUNNY     73  49  42 SW10G21   30.20F
JACKSON HAWKNS SUNNY     73  50  44 S12       30.20F
MERIDIAN KEY   SUNNY     68  44  42 S12G18    30.24F
MERIDIAN NAS   MOSUNNY   67  41  39 S8        30.24F
RAYMOND        FAIR      75  70  83 S10G20    30.18F
VICKSBURG      SUNNY     76  55  48 S14G30    30.16F
$$

MSZ059>079-292000-
SOUTH MISSISSIPPI

CITY           SKY/WX    TMP DP  RH WIND       PRES   REMARKS
BROOKHAVEN     FAIR      75  55  50 S15G21    30.22F
HATTIESBURG    SUNNY     73  54  51 SW14      30.26F
MCCOMB         PTSUNNY   75  56  51 S13G24    30.22F
NATCHEZ        MOSUNNY   75  55  50 SW16G28   30.19F
PINE BELT      SUNNY     72  39  30 S12       30.26F
$$

MSZ080>082-292000-
COASTAL MISSISSIPPI

CITY           SKY/WX    TMP DP  RH WIND       PRES   REMARKS
BAY ST LOUIS   PTSUNNY   70  52  52 SE14G21   30.28F
BILOXI         MOSUNNY   68  56  65 SE15      30.29F
PASCAGOULA     CLOUDY    69  54  58 SE16      30.30F
GULFPORT       PTSUNNY   68  56  65 SE16      30.29F
$$



USA.gov is the U.S. government's official web portal to all federal, state and local government web resources and services.